Skip Page Navigation
NASA JPL Caltech
NASA Logo - Jet Propulsion Laboratory + View the NASA Portal
+ Center for Near-Earth Object Studies
JPL Home Earth Solar System Stars & Galaxies Technology
JPL Solar System Dynamics
BODIES ORBITS EPHEMERIDES TOOLS PHYSICAL DATA DISCOVERY FAQ SITE MAP
JPL Small-Body Database Browser
Search: [ help ]  
123 Brunhild (A872 OB)
Classification: Main-belt Asteroid          SPK-ID: 2000123
Ephemeris | Orbit Diagram | Orbital Elements | Mission Design | Physical Parameters | Discovery Circumstances ]

[ show orbit diagram ]
Orbital Elements at Epoch 2459200.5 (2020-Dec-17.0) TDB
Reference: JPL 44 (heliocentric ecliptic J2000)
 Element Value Uncertainty (1-sigma)   Units 
e .120669246837349 6.4345e-09  
a 2.694823136043492 7.1595e-09 au
q 2.369640857857261 1.6456e-08 au
i 6.414412602117751 2.3046e-07 deg
node 307.7252981481232 3.9091e-06 deg
peri 125.5930037678636 1.4186e-05 deg
M 93.67906961057584 1.2367e-05 deg
tp 2458780.031083426624
(2019-Oct-23.53108343)
5.543e-05 TDB
period 1615.823156609644
4.42
6.4393e-06
1.763e-08
d
yr
n .2227966584879004 8.8788e-10 deg/d
Q 3.020005414229723 8.0235e-09 au
  Orbit Determination Parameters
   # obs. used (total)      3199  
   data-arc span      54289 days (148.64 yr)  
   first obs. used      1872-08-02  
   last obs. used      2021-03-23  
   planetary ephem.      DE441  
   SB-pert. ephem.      SB441-N16  
   condition code      0  
   norm. resid. RMS      .44194  
   source      ORB  
   producer      Otto Matic  
   solution date      2021-May-03 17:53:37  

Additional Information
 Earth MOID = 1.39112 au 
 Jupiter MOID = 2.22125 au 
 T_jup = 3.351 
[ show covariance matrix ]

Ephemeris | Orbit Diagram | Orbital Elements | Mission Design | Physical Parameters | Discovery Circumstances ]

Physical Parameter Table
Parameter Symbol Value Units Sigma Reference Notes
absolute magnitude H 8.93   n/a E2021B10  
diameter diameter 45.209 km 1.883 urn:nasa:pds:neowise_diameters_albedos::2.0[mainbelt] (http://adsabs.harvard.edu/abs/2012ApJ...759L...8M)  
rotation period rot_per 9.873 h n/a LCDB (Rev. 2020-October); Warner et al., 2009 Published Reference List:
[Barucci, M.A.; Di Martino, M. (1984) Astron. Astrophys. Suppl. Ser. 57, 103-106.]
[Behrend, R. (2010) Observatoire de Geneve web site, http://obswww.unige.ch/~behrend/page_cou.html]
[Pilcher, F. (2016) Minor Planet Bull. 43, 222-224.]
geometric albedo albedo 0.261   0.064 urn:nasa:pds:neowise_diameters_albedos::2.0[mainbelt] (http://adsabs.harvard.edu/abs/2012ApJ...759L...8M)  
B-V BV 0.850   0.019 EAR-A-5-DDR-UBV-MEAN-VALUES-V1.2 #obs=3; phase (min.=3.22, mean=9.07, max.=20.32) deg.
U-B UB 0.395   0.023 EAR-A-5-DDR-UBV-MEAN-VALUES-V1.2 #obs=3; phase (min.=3.22, mean=9.07, max.=20.32) deg.
Tholen spectral type spec_T S   n/a EAR-A-5-DDR-TAXONOMY-V4.0 used 2 color indices; used ground-based radiometric albedo
SMASSII spectral type spec_B S   n/a EAR-A-5-DDR-TAXONOMY-V4.0 based on a high-resolution spectrum by Xu et al. (1995) or Bus and Binzel (2002)

123 Brunhild (A872 OB)          Discovered 1872-Jul-31 by Peters, C. H. F. at Clinton
Reference: DISCOVERY.DBLast Updated: 2003-08-29
Ephemeris | Orbit Diagram | Orbital Elements | Mission Design | Physical Parameters | Discovery Circumstances ]
ABOUT SSD CREDITS/AWARDS PRIVACY/COPYRIGHT GLOSSARY LINKS
FirstGov 2021-Jun-24 04:08 UT
(server date/time)  
NASA Home Page
Site Manager:   Ryan S. Park
Webmaster  Alan B. Chamberlin